Location: Boissi�res
(45.2500°N, 2.3667°E)
Time: 04:48:50
(UTC+00:00)

ATLAS CENTAUR R/B - Pass Details

Date: 03 March 2021
Orbit: 475 x 670 km, 64.7° (Epoch: 30 March)

Event Time Altitude Azimuth Distance (km) Brightness Sun altitude
Rises 18:17:45 0° 189° (S) 2,524 4.8 -7.3°
Reaches altitude 10° 18:20:04 10° 177° (S) 1,640 3.7 -7.7°
Maximum altitude 18:23:13 28° 117° (ESE) 915 2.0 -8.3°
Drops below altitude 10° 18:26:24 10° 57° (ENE) 1,654 3.3 -8.9°
Enters shadow 18:27:02 - 52° (NE) 1,888 3.6 -9.0°
